Location: Newark
(46.7000°N, 60.6000°W)
Time: 05:28:30
(UTC+00:00)

Transit 2A Rocket - Pass Details

Date: 05 November 2020
Orbit: 588 x 914 km, 66.7° (Epoch: 29 November)

Event Time Altitude Azimuth Distance (km) Brightness Sun altitude
Rises 13:32:34 0° 254° (WSW) 3,533 8.2 20.6°
Reaches altitude 10° 13:35:36 10° 268° (W) 2,574 7.5 20.8°
Maximum altitude 13:40:27 25° 322° (NW) 1,691 6.4 21.3°
Drops below altitude 10° 13:45:08 10° 17° (NNE) 2,455 7.3 21.7°
Sets 13:47:58 0° 30° (NNE) 3,336 8.0 22.0°
